Torna al catalogo

BLACK KITE-1

AttivoScienzaSSO
NORAD 66741·PAYLOAD·🇹🇼 Taiwan

Lanciato Nov 28, 2025 da Vandenberg Space Force Base

Loading…

Prossimi Passaggi (prossime 24 ore)

TLE

AggiornatoSource: Space-Track

Epoca: Sep 14, 2026, 10:35 UTC

1 66741U 25276CD  26257.44162374  .00005868  00000-0  26172-3 0  9997
2 66741  97.4169 329.8761 0006452  50.0058 310.1744 15.21759232 41296

Traccia BLACK KITE-1 in tempo reale con AllMySat

Download on the App Store